TimeAKST,TemperatureF,Dew PointF,Humidity,Sea Level PressureIn,VisibilityMPH,Wind Direction,Wind SpeedMPH,Gust SpeedMPH,PrecipitationIn,Events,Conditions,WindDirDegrees,DateUTC
12:53 AM,-42.0,-9999,N/A,29.93,10.0,Calm,Calm,-,N/A,,Clear,0,2012-12-05 09:53:00
1:53 AM,-43.1,-9999,N/A,29.94,10.0,Calm,Calm,-,N/A,,Clear,0,2012-12-05 10:53:00
3:53 AM,-42.0,-9999,N/A,29.96,9.0,Calm,Calm,-,N/A,,Clear,0,2012-12-05 12:53:00
5:53 AM,-42.0,-9999,N/A,29.98,10.0,Calm,Calm,-,N/A,,Partly Cloudy,0,2012-12-05 14:53:00
6:53 AM,-42.0,-9999,N/A,29.99,10.0,Calm,Calm,-,N/A,,Scattered Clouds,0,2012-12-05 15:53:00
7:53 AM,-42.0,-9999,N/A,30.00,10.0,Calm,Calm,-,N/A,Fog,Shallow Fog,0,2012-12-05 16:53:00
8:53 AM,-43.1,-9999,N/A,30.01,10.0,Calm,Calm,-,N/A,Fog,Shallow Fog,0,2012-12-05 17:53:00
9:53 AM,-43.1,-9999,N/A,30.03,10.0,Calm,Calm,-,N/A,Fog,Shallow Fog,0,2012-12-05 18:53:00
10:53 AM,-38.9,-9999,N/A,30.03,10.0,Calm,Calm,-,N/A,Fog,Shallow Fog,0,2012-12-05 19:53:00
11:53 AM,-31.0,-9999,N/A,30.01,10.0,Calm,Calm,-,N/A,,Scattered Clouds,0,2012-12-05 20:53:00
12:53 PM,-29.0,-36.0,69,30.01,10.0,Calm,Calm,-,N/A,,Scattered Clouds,0,2012-12-05 21:53:00
1:53 PM,-27.9,-35.0,69,30.02,10.0,Calm,Calm,-,N/A,,Scattered Clouds,0,2012-12-05 22:53:00
2:53 PM,-27.9,-35.0,69,30.01,10.0,Calm,Calm,-,N/A,,Scattered Clouds,0,2012-12-05 23:53:00
3:53 PM,-34.1,-9999,N/A,30.03,10.0,Calm,Calm,-,N/A,,Scattered Clouds,0,2012-12-06 00:53:00
4:53 PM,-35.0,-9999,N/A,30.03,10.0,Calm,Calm,-,N/A,,Scattered Clouds,0,2012-12-06 01:53:00
5:53 PM,-36.9,-9999,N/A,30.04,10.0,Calm,Calm,-,N/A,,Partly Cloudy,0,2012-12-06 02:53:00
6:53 PM,-36.9,-9999,N/A,30.05,10.0,Calm,Calm,-,N/A,,Partly Cloudy,0,2012-12-06 03:53:00
7:53 PM,-36.0,-9999,N/A,30.04,10.0,Calm,Calm,-,N/A,,Clear,0,2012-12-06 04:53:00
8:53 PM,-36.0,-9999,N/A,30.05,10.0,Calm,Calm,-,N/A,,Clear,0,2012-12-06 05:53:00
9:25 PM,-36.4,-9999,N/A,29.72,10.0,Calm,Calm,-,N/A,,Clear,0,2012-12-06 06:25:00
9:53 PM,-36.9,-9999,N/A,30.06,10.0,Calm,Calm,-,N/A,,Clear,0,2012-12-06 06:53:00
10:53 PM,-35.0,-9999,N/A,30.06,10.0,Calm,Calm,-,N/A,,Clear,0,2012-12-06 07:53:00
11:53 PM,-35.0,-9999,N/A,30.05,10.0,Calm,Calm,-,N/A,,Clear,0,2012-12-06 08:53:00